H1 CPF 2 NER 2024 3 29 9 089 01 glonass145 H2 2213001 9145 54031 2024 3 29 0 0 0 2024 4 1 23 45 0 900 1 1 0 0 0 1 H9 10 0 60398 0.00000 0 1247891.614 11269482.319 -22847050.986 10 0 60398 900.00000 0 -1242649.938 12505388.745 -22196412.027 10 0 60398 1800.00000 0 -3543664.377 13866813.095 -21114662.666 10 0 60398 2700.00000 0 -5607009.380 15305089.385 -19622859.699 10 0 60398 3600.00000 0 -7394994.431 16764749.985 -17750013.924 10 0 60398 4500.00000 0 -8881691.752 18185825.085 -15532525.230 10 0 60398 5400.00000 0 -10053753.369 19506349.926 -13013475.060 10 0 60398 6300.00000 0 -10910701.740 20664974.853 -10241789.735 10 0 60398 7200.00000 0 -11464683.268 21603568.795 -7271290.722 10 0 60398 8100.00000 0 -11739696.462 22269706.944 -4159650.130 10 0 60398 9000.00000 0 -11770328.504 22618938.105 -967271.609 10 0 60398 9900.00000 0 -11600054.494 22616736.302 2243881.546 10 0 60398 10800.00000 0 -11279172.014 22240054.420 5411488.277 10 0 60398 11700.00000 0 -10862458.879 21478414.274 8474078.193 10 0 60398 12600.00000 0 -10406653.510 20334486.940 11372222.909 10 0 60398 13500.00000 0 -9967864.705 18824138.498 14049687.182 10 0 60398 14400.00000 0 -9599020.383 16975938.739 16454517.556 10 0 60398 15300.00000 0 -9347463.157 14830152.729 18540047.551 10 0 60398 16200.00000 0 -9252794.200 12437256.700 20265800.224 10 0 60398 17100.00000 0 -9345056.411 9856039.381 21598271.021 10 0 60398 18000.00000 0 -9643333.548 7151367.037 22511576.128 10 0 60398 18900.00000 0 -10154824.587 4391704.324 22987954.193 10 0 60398 19800.00000 0 -10874432.698 1646493.033 23018111.979 10 0 60398 20700.00000 0 -11784886.750 -1016503.311 22601407.363 10 0 60398 21600.00000 0 -12857391.077 -3533779.684 21745866.069 10 0 60398 22500.00000 0 -14052777.192 -5848488.378 20468031.482 10 0 60398 23400.00000 0 -15323110.044 -7912557.502 18792649.953 10 0 60398 24300.00000 0 -16613682.384 -9688441.823 16752197.021 10 0 60398 25200.00000 0 -17865314.238 -11150433.720 14386252.991 10 0 60398 26100.00000 0 -19016861.441 -12285480.130 11740739.266 10 0 60398 27000.00000 0 -20007828.014 -13093472.003 8867029.662 10 0 60398 27900.00000 0 -20780972.403 -13586994.734 5820953.504 10 0 60398 28800.00000 0 -21284797.447 -13790550.732 2661709.790 10 0 60398 29700.00000 0 -21475818.507 -13739287.604 -549286.375 10 0 60398 30600.00000 0 -21320513.278 -13477286.351 -3749602.261 10 0 60398 31500.00000 0 -20796870.120 -13055482.745 -6877006.942 10 0 60398 32400.00000 0 -19895468.603 -12529310.664 -9870687.232 10 0 60398 33300.00000 0 -18620045.794 -11956167.974 -12672435.710 10 0 60398 34200.00000 0 -16987523.598 -11392813.048 -15227786.987 10 0 60398 35100.00000 0 -15027495.289 -10892802.825 -17487079.600 10 0 60398 36000.00000 0 -12781192.227 -10504081.371 -19406422.579 10 0 60398 36900.00000 0 -10299973.621 -10266821.304 -20948547.804 10 0 60398 37800.00000 0 -7643402.202 -10211609.461 -22083531.815 10 0 60398 38700.00000 0 -4876985.802 -10358053.479 -22789373.445 10 0 60398 39600.00000 0 -2069678.666 -10713867.960 -23052416.556 10 0 60398 40500.00000 0 708753.887 -11274478.606 -22867610.281 10 0 60398 41400.00000 0 3390398.466 -12023160.857 -22238602.248 10 0 60398 42300.00000 0 5911774.257 -12931707.094 -21177663.421 10 0 60398 43200.00000 0 8216224.985 -13961594.333 -19705446.332 10 0 60398 44100.00000 0 10256023.825 -15065603.368 -17850581.493 10 0 60398 45000.00000 0 11994104.842 -16189821.398 -15649119.864 10 0 60398 45900.00000 0 13405350.208 -17275944.113 -13143832.028 10 0 60398 46800.00000 0 14477380.856 -18263780.586 -10383377.513 10 0 60398 47700.00000 0 15210818.944 -19093855.702 -7421360.201 10 0 60398 48600.00000 0 15619012.534 -19710000.699 -4315288.016 10 0 60398 49500.00000 0 15727235.338 -20061822.712 -1125456.990 10 0 60398 50400.00000 0 15571396.336 -20106949.223 2086218.559 10 0 60398 51300.00000 0 15196314.590 -19812952.666 5257406.978 10 0 60398 52200.00000 0 14653632.756 -19158873.826 8326567.925 10 0 60398 53100.00000 0 13999457.915 -18136279.448 11234145.103 10 0 60398 54000.00000 0 13291829.635 -16749809.044 13923719.908 10 0 60398 54900.00000 0 12588122.324 -15017187.202 16343103.662 10 0 60398 55800.00000 0 11942491.494 -12968700.102 18445347.408 10 0 60398 56700.00000 0 11403471.552 -10646157.214 20189649.962 10 0 60398 57600.00000 0 11011826.200 -8101380.551 21542147.064 10 0 60398 58500.00000 0 10798741.853 -5394283.413 22476566.682 10 0 60398 59400.00000 0 10784440.011 -2590617.526 22974738.223 10 0 60398 60300.00000 0 10977267.011 240518.907 23026946.062 10 0 60398 61200.00000 0 11373299.629 3029309.779 22632120.670 10 0 60398 62100.00000 0 11956483.505 5707878.206 21797863.555 10 0 60398 63000.00000 0 12699299.126 8212862.860 20540305.251 10 0 60398 63900.00000 0 13563928.038 10487807.333 18883798.571 10 0 60398 64800.00000 0 14503870.952 12485263.968 16860452.442 10 0 60398 65700.00000 0 15465950.371 14168525.226 14509514.596 10 0 60398 66600.00000 0 16392613.919 15512910.943 11876614.378 10 0 60398 67500.00000 0 17224441.666 16506558.219 9012879.788 10 0 60398 68400.00000 0 17902751.783 17150681.381 5973945.432 10 0 60398 69300.00000 0 18372194.303 17459291.636 2818870.572 10 0 60398 70200.00000 0 18583222.974 17458388.812 -391011.626 10 0 60398 71100.00000 0 18494340.011 17184659.897 -3593290.859 10 0 60398 72000.00000 0 18074017.995 16683740.026 -6725698.588 10 0 60398 72900.00000 0 17302216.690 16008110.179 -9727324.634 10 0 60398 73800.00000 0 16171429.707 15214721.241 -12539807.057 10 0 60398 74700.00000 0 14687215.835 14362445.689 -15108471.439 10 0 60398 75600.00000 0 12868191.748 13509465.307 -17383396.890 10 0 60398 76500.00000 0 10745485.545 12710705.905 -19320387.745 10 0 60398 77400.00000 0 8361673.354 12015427.725 -20881831.958 10 0 60398 78300.00000 0 5769242.964 11465073.395 -22037429.699 10 0 60398 79200.00000 0 3028648.088 11091464.094 -22764778.403 10 0 60398 80100.00000 0 206034.019 10915419.719 -23049803.380 10 0 60398 81000.00000 0 -2629271.163 10945860.724 -22887026.220 10 0 60398 81900.00000 0 -5407396.061 11179429.000 -22279666.343 10 0 60398 82800.00000 0 -8060587.007 11600643.261 -21239574.142 10 0 60398 83700.00000 0 -10525780.946 12182581.983 -19786997.347 10 0 60398 84600.00000 0 -12746984.141 12888064.819 -17950185.291 10 0 60398 85500.00000 0 -14677358.780 13671282.560 -15764838.737 10 0 60399 0.00000 0 -16280931.638 14479806.836 -13273416.092 10 0 60399 900.00000 0 -17533855.587 15256895.268 -10524307.846 10 0 60399 1800.00000 0 -18425170.413 15943993.879 -7570898.538 10 0 60399 2700.00000 0 -18957035.233 16483332.665 -4470529.808 10 0 60399 3600.00000 0 -19144421.764 16820503.741 -1283387.879 10 0 60399 4500.00000 0 -19014283.325 16906913.601 1928664.186 10 0 60399 5400.00000 0 -18604235.355 16702005.743 5103286.488 10 0 60399 6300.00000 0 -17960803.799 16175159.593 8178871.170 10 0 60399 7200.00000 0 -17137315.794 15307185.211 11095736.515 10 0 60399 8100.00000 0 -16191521.957 14091350.260 13797283.095 10 0 60399 9000.00000 0 -15183050.745 12533895.262 16231089.550 10 0 60399 9900.00000 0 -14170802.152 10654014.644 18349926.926 10 0 60399 10800.00000 0 -13210390.426 8483303.327 20112672.165 10 0 60399 11700.00000 0 -12351743.140 6064690.859 21485103.471 10 0 60399 12600.00000 0 -11636957.341 3450906.358 22440562.525 10 0 60399 13500.00000 0 -11098502.524 702536.986 22960471.108 10 0 60399 14400.00000 0 -10757845.679 -2114240.589 23034692.478 10 0 60399 15300.00000 0 -10624555.978 -4930162.674 22661730.571 10 0 60399 16200.00000 0 -10695926.669 -7675512.195 21848763.138 10 0 60399 17100.00000 0 -10957130.183 -10282775.250 20611507.870 10 0 60399 18000.00000 0 -11381900.180 -12689211.091 18973923.608 10 0 60399 18900.00000 0 -11933712.208 -14839229.482 16967751.785 10 0 60399 19800.00000 0 -12567413.674 -16686477.138 14631906.250 10 0 60399 20700.00000 0 -13231234.810 -18195546.703 12011722.594 10 0 60399 21600.00000 0 -13869096.015 -19343237.349 9158080.958 10 0 60399 22500.00000 0 -14423114.265 -20119314.573 6126418.886 10 0 60399 23400.00000 0 -14836202.437 -20526737.681 2975653.304 10 0 60399 24300.00000 0 -15054651.219 -20581345.823 -232967.368 10 0 60399 25200.00000 0 -15030583.713 -20311016.254 -3437058.253 10 0 60399 26100.00000 0 -14724177.973 -19754330.868 -6574316.355 10 0 60399 27000.00000 0 -14105562.478 -18958807.932 -9583737.785 10 0 60399 27900.00000 0 -13156303.278 -17978774.359 -12406809.436 10 0 60399 28800.00000 0 -11870418.949 -16872969.111 -14988651.210 10 0 60399 29700.00000 0 -10254879.455 -15701979.559 -17279086.035 10 0 60399 30600.00000 0 -8329566.932 -14525619.563 -19233616.574 10 0 60399 31500.00000 0 -6126699.148 -13400360.189 -20814289.524 10 0 60399 32400.00000 0 -3689739.018 -12376921.507 -21990430.898 10 0 60399 33300.00000 0 -1071835.074 -11498126.731 -22739238.398 10 0 60399 34200.00000 0 1666142.638 -10797108.660 -23046219.850 10 0 60399 35100.00000 0 4457889.979 -10295943.291 -22905469.787 10 0 60399 36000.00000 0 7234184.897 -10004767.301 -22319779.332 10 0 60399 36900.00000 0 9925528.333 -9921415.738 -21300577.698 10 0 60399 37800.00000 0 12464800.851 -10031594.323 -19867706.754 10 0 60399 38700.00000 0 14789825.306 -10309578.411 -18049033.154 10 0 60399 39600.00000 0 16845729.847 -10719408.528 -15879905.574 10 0 60399 40500.00000 0 18587013.802 -11216531.686 -13402467.478 10 0 60399 41400.00000 0 19979231.390 -11749818.907 -10664838.552 10 0 60399 42300.00000 0 21000223.933 -12263873.627 -7720180.553 10 0 60399 43200.00000 0 21640850.164 -12701533.356 -4625665.514 10 0 60399 44100.00000 0 21905185.057 -13006458.825 -1441366.308 10 0 60399 45000.00000 0 21810179.800 -13125701.058 1770908.913 10 0 60399 45900.00000 0 21384798.103 -13012137.728 4948815.654 10 0 60399 46800.00000 0 20668665.913 -12626675.562 8030682.048 10 0 60399 47700.00000 0 19710291.935 -11940125.432 10956704.216 10 0 60399 48600.00000 0 18564934.302 -10934670.459 13670104.805 10 0 60399 49500.00000 0 17292203.401 -9604864.594 16118232.265 10 0 60399 50400.00000 0 15953501.764 -7958118.774 18253579.673 10 0 60399 51300.00000 0 14609408.540 -6014653.212 20034703.654 10 0 60399 52200.00000 0 13317118.158 -3806916.574 21427025.970 10 0 60399 53100.00000 0 12128040.337 -1378495.068 22403502.622 10 0 60399 54000.00000 0 11085661.673 1217444.478 22945147.946 10 0 60399 54900.00000 0 10223758.003 3920114.087 23041403.815 10 0 60399 55800.00000 0 9565032.021 6663386.509 22690346.957 10 0 60399 56700.00000 0 9120232.952 9378305.947 21898730.313 10 0 60399 57600.00000 0 8887794.872 11995724.498 20681857.340 10 0 60399 58500.00000 0 8854008.773 14448955.711 19063291.219 10 0 60399 59400.00000 0 8993721.063 16676335.727 17074403.952 10 0 60399 60300.00000 0 9271529.185 18623586.027 14753773.360 10 0 60399 61200.00000 0 9643424.053 20245879.667 12146438.961 10 0 60399 62100.00000 0 10058810.059 21509525.040 9303030.568 10 0 60399 63000.00000 0 10462817.273 22393196.913 6278786.083 10 0 60399 63900.00000 0 10798807.845 22888663.265 3132477.418 10 0 60399 64800.00000 0 11010970.112 23000977.609 -74734.467 10 0 60399 65700.00000 0 11046889.968 22748128.954 -3280492.822 10 0 60399 66600.00000 0 10859989.731 22160164.463 -6422462.821 10 0 60399 67500.00000 0 10411730.317 21277822.271 -9439549.335 10 0 60399 68400.00000 0 9673482.391 20150732.626 -12273090.360 10 0 60399 69300.00000 0 8627986.305 18835263.833 -14868002.137 10 0 60399 70200.00000 0 7270338.024 17392104.409 -17173853.174 10 0 60399 71100.00000 0 5608458.429 15883683.827 -19145845.961 10 0 60399 72000.00000 0 3663025.209 14371540.877 -20745687.183 10 0 60399 72900.00000 0 1466869.325 12913750.472 -21942329.699 10 0 60399 73800.00000 0 -936139.562 11562516.997 -22712572.236 10 0 60399 74700.00000 0 -3492672.833 10362034.926 -23041505.630 10 0 60399 75600.00000 0 -6141922.599 9346705.873 -22922797.542 10 0 60399 76500.00000 0 -8817899.558 8539786.067 -22358810.640 10 0 60399 77400.00000 0 -11451953.982 7952519.985 -21360552.416 10 0 60399 78300.00000 0 -13975415.658 7583795.455 -19947457.925 10 0 60399 79200.00000 0 -16322243.681 7420333.577 -18147009.808 10 0 60399 80100.00000 0 -18431576.528 7437404.509 -15994202.977 10 0 60399 81000.00000 0 -20250077.026 7600038.066 -13530864.255 10 0 60399 81900.00000 0 -21733975.234 7864677.417 -10804839.964 10 0 60399 82800.00000 0 -22850724.767 8181205.538 -7869067.063 10 0 60399 83700.00000 0 -23580204.159 8495258.447 -4780545.728 10 0 60399 84600.00000 0 -23915413.751 8750727.141 -1599233.204 10 0 60399 85500.00000 0 -23862639.696 8892342.201 1613119.543 10 0 60400 0.00000 0 -23441078.920 8868231.507 4794165.430 10 0 60400 900.00000 0 -22681941.176 8632342.603 7882171.456 10 0 60400 1800.00000 0 -21627067.057 8146626.990 10817213.619 10 0 60400 2700.00000 0 -20327119.688 7382893.646 13542338.967 10 0 60400 3600.00000 0 -18839426.793 6324252.893 16004668.030 10 0 60400 4500.00000 0 -17225563.671 4966089.057 18156418.093 10 0 60400 5400.00000 0 -15548778.432 3316520.039 19955827.461 10 0 60400 6300.00000 0 -13871367.178 1396323.347 21367963.203 10 0 60400 7200.00000 0 -12252108.718 -761669.611 22365397.105 10 0 60400 8100.00000 0 -10743865.682 -3113687.086 22928737.163 10 0 60400 9000.00000 0 -9391451.819 -5606593.427 23047004.624 10 0 60400 9900.00000 0 -8229854.103 -8179864.194 22717849.396 10 0 60400 10800.00000 0 -7282883.413 -10767879.135 21947599.637 10 0 60400 11700.00000 0 -6562309.730 -13302438.952 20751144.249 10 0 60400 12600.00000 0 -6067517.619 -15715402.211 19151650.092 10 0 60400 13500.00000 0 -5785696.071 -17941333.539 17180118.760 10 0 60400 14400.00000 0 -5692554.432 -19920053.452 14874790.766 10 0 60400 15300.00000 0 -5753534.075 -21598983.832 12280408.003 10 0 60400 16200.00000 0 -5925464.516 -22935191.308 9447348.171 10 0 60400 17100.00000 0 -6158593.804 -23897043.091 6430647.533 10 0 60400 18000.00000 0 -6398907.028 -24465405.814 3288930.830 10 0 60400 18900.00000 0 -6590634.329 -24634336.992 83269.235 10 0 60400 19800.00000 0 -6678841.555 -24411240.021 -3124011.100 10 0 60400 20700.00000 0 -6611993.009 -23816476.220 -6270546.131 10 0 60400 21600.00000 0 -6344376.747 -22882450.503 -9295152.255 10 0 60400 22500.00000 0 -5838288.699 -21652209.457 -12139021.451 10 0 60400 23400.00000 0 -5065882.047 -20177611.322 -14746869.257 10 0 60400 24300.00000 0 -4010602.643 -18517145.413 -17068012.698 10 0 60400 25200.00000 0 -2668148.756 -16733493.146 -19057356.918 10 0 60400 26100.00000 0 -1046913.734 -14890933.603 -20676271.191 10 0 60400 27000.00000 0 832108.009 -13052702.761 -21893337.489 10 0 60400 27900.00000 0 2935948.632 -11278417.140 -22684957.404 10 0 60400 28800.00000 0 5220802.642 -9621669.553 -23035806.152 10 0 60400 29700.00000 0 7633624.126 -8127897.093 -22939125.384 10 0 60400 30600.00000 0 10114119.482 -6832609.730 -22396849.684 10 0 60400 31500.00000 0 12597053.264 -5760052.651 -21419564.722 10 0 60400 32400.00000 0 15014771.711 -4922357.118 -20026298.190 10 0 60400 33300.00000 0 17299839.562 -4319214.108 -18244147.729 10 0 60400 34200.00000 0 19387680.873 -3938083.126 -16107753.067 10 0 60400 35100.00000 0 21219114.438 -3754926.179 -13658622.520 10 0 60400 36000.00000 0 22742678.654 -3735434.916 -10944326.723 10 0 60400 36900.00000 0 23916649.335 -3836698.295 -8017575.095 10 0 60400 37800.00000 0 24710666.698 -4009239.657 -4935192.812 10 0 60400 38700.00000 0 25106904.007 -4199336.581 -1757018.050 10 0 60400 39600.00000 0 25100729.414 -4351524.973 1455259.047 10 0 60400 40500.00000 0 24700833.747 -4411181.118 4639293.063 10 0 60400 41400.00000 0 23928819.327 -4327072.132 7733292.357 10 0 60400 42300.00000 0 22818267.397 -4053766.597 10677216.808 10 0 60400 43200.00000 0 21413323.614 -3553803.102 13413941.004 10 0 60400 44100.00000 0 19766861.057 -2799524.595 15890360.339 10 0 60400 45000.00000 0 17938297.808 -1774500.563 18058418.666 10 0 60400 45900.00000 0 15991160.416 -474476.318 19876037.899 10 0 60400 46800.00000 0 13990494.922 1092191.499 21307931.902 10 0 60400 47700.00000 0 12000233.315 2904632.670 22326289.285 10 0 60400 48600.00000 0 10080624.890 4930091.641 22911312.293 10 0 60400 49500.00000 0 8285839.133 7125061.457 23051601.669 10 0 60400 50400.00000 0 6661839.488 9436877.540 22744380.170 10 0 60400 51300.00000 0 5244616.049 11805706.323 21995550.376 10 0 60400 52200.00000 0 4058850.254 14166847.264 20819585.403 10 0 60400 53100.00000 0 3117066.736 16453253.478 19239254.158 10 0 60400 54000.00000 0 2419307.224 18598166.941 17285185.838 10 0 60400 54900.00000 0 1953339.577 20537759.059 14995281.367 10 0 60400 55800.00000 0 1695392.711 22213666.785 12413982.493 10 0 60400 56700.00000 0 1611386.012 23575318.421 9591412.092 10 0 60400 57600.00000 0 1658600.930 24581951.730 6582401.946 10 0 60400 58500.00000 0 1787723.671 25204239.499 3445426.681 10 0 60400 59400.00000 0 1945171.997 25425454.043 241464.709 10 0 60400 60300.00000 0 2075606.931 25242121.436 -2967191.371 10 0 60400 61200.00000 0 2124522.144 24664137.686 -6118151.166 10 0 60400 62100.00000 0 2040800.395 23714341.905 -9150145.300 10 0 60400 63000.00000 0 1779127.684 22427564.426 -12004222.218 10 0 60400 63900.00000 0 1302161.897 20849190.142 -14624898.960 10 0 60400 64800.00000 0 582363.123 19033297.731 -16961242.995 10 0 60400 65700.00000 0 -396592.673 17040453.282 -18967863.743 10 0 60400 66600.00000 0 -1638877.215 14935251.234 -20605794.404 10 0 60400 67500.00000 0 -3136091.070 12783705.929 -21843247.102 10 0 60400 68400.00000 0 -4867380.809 10650602.987 -22656227.048 10 0 60400 69300.00000 0 -6800088.070 8596921.113 -23028994.262 10 0 60400 70200.00000 0 -8890904.048 6677431.606 -22954364.465 10 0 60400 71100.00000 0 -11087481.874 4938575.037 -22433843.836 10 0 60400 72000.00000 0 -13330440.144 3416702.826 -21477595.471 10 0 60400 72900.00000 0 -15555674.664 2136755.874 -20104238.508 10 0 60400 73800.00000 0 -17696882.540 1111434.144 -18340483.972 10 0 60400 74700.00000 0 -19688193.881 340890.458 -16220614.431 10 0 60400 75600.00000 0 -21466801.799 -187040.119 -13785817.425 10 0 60400 76500.00000 0 -22975481.373 -496086.331 -11083385.444 10 0 60400 77400.00000 0 -24164892.707 -620295.173 -8165797.799 10 0 60400 78300.00000 0 -24995572.106 -602348.285 -5089702.061 10 0 60400 79200.00000 0 -25439528.363 -491512.199 -1914814.730 10 0 60400 80100.00000 0 -25481377.517 -341309.739 1297237.449 10 0 60400 81000.00000 0 -25118968.748 -207011.556 4484113.005 10 0 60400 81900.00000 0 -24363475.380 -143054.352 7583964.735 10 0 60400 82800.00000 0 -23238947.268 -200495.343 10536638.583 10 0 60400 83700.00000 0 -21781343.483 -424610.969 13284839.057 10 0 60400 84600.00000 0 -20037085.772 -852741.699 15775238.649 10 0 60400 85500.00000 0 -18061193.323 -1512474.369 17959509.818 10 0 60401 0.00000 0 -15915076.821 -2420239.187 19795259.700 10 0 60401 900.00000 0 -13664082.491 -3580381.776 21246850.700 10 0 60401 1800.00000 0 -11374891.078 -4984748.924 22286089.097 10 0 60401 2700.00000 0 -9112875.865 -6612808.176 22892771.998 10 0 60401 3600.00000 0 -6939531.961 -8432296.405 23055079.853 10 0 60401 4500.00000 0 -4910082.117 -10400372.088 22769808.083 10 0 60401 5400.00000 0 -3071358.183 -12465224.460 22042433.168 10 0 60401 6300.00000 0 -1460045.684 -14568073.809 20887011.601 10 0 60401 7200.00000 0 -101363.991 -16645480.596 19325913.236 10 0 60401 8100.00000 0 991763.584 -18631868.088 17389393.526 10 0 60401 9000.00000 0 1819015.733 -20462153.892 15115012.247 10 0 60401 9900.00000 0 2392442.978 -22074380.862 12546909.245 10 0 60401 10800.00000 0 2735711.686 -23412237.448 9734950.659 10 0 60401 11700.00000 0 2882854.732 -24427361.821 6733761.726 10 0 60401 12600.00000 0 2876582.122 -25081332.742 3601664.802 10 0 60401 13500.00000 0 2766223.660 -25347263.161 399543.299 10 0 60401 14400.00000 0 2605391.442 -25210928.983 -2810346.042 10 0 60401 15300.00000 0 2449461.998 -24671385.025 -5965588.831 10 0 60401 16200.00000 0 2352985.672 -23741041.836 -9004832.335 10 0 60401 17100.00000 0 2367133.955 -22445199.844 -11868983.924 10 0 60401 18000.00000 0 2537293.890 -20821060.323 -14502364.629 10 0 60401 18900.00000 0 2900912.298 -18916254.749 -16853794.815 10 0 60401 19800.00000 0 3485681.909 -16786954.390 -18877590.546 10 0 60401 20700.00000 0 4308146.807 -14495639.588 -20534451.119 10 0 60401 21600.00000 0 5372786.767 -12108622.218 -21792220.720 10 0 60401 22500.00000 0 6671619.712 -9693424.946 -22626509.741 10 0 60401 23400.00000 0 8184339.659 -7316126.565 -23021164.176 10 0 60401 24300.00000 0 9878984.955 -5038783.771 -22968574.566 10 0 60401 25200.00000 0 11713109.428 -2917036.178 -22469819.015 10 0 60401 26100.00000 0 13635407.960 -997993.527 -21534637.965 10 0 60401 27000.00000 0 15587729.094 681508.017 -20181241.532 10 0 60401 27900.00000 0 17507391.048 2096209.078 -18435953.275 10 0 60401 28800.00000 0 19329704.819 3233236.864 -16332697.352 10 0 60401 29700.00000 0 20990599.352 4092389.197 -13912338.893 10 0 60401 30600.00000 0 22429239.325 4685882.464 -11221890.194 10 0 60401 31500.00000 0 23590526.325 5037575.469 -8313598.018 10 0 60401 32400.00000 0 24427378.866 5181703.192 -5243929.526 10 0 60401 33300.00000 0 24902695.884 5161174.903 -2072476.450 10 0 60401 34200.00000 0 24990921.435 5025509.378 1139201.168 10 0 60401 35100.00000 0 24679145.012 4828495.190 4328769.188 10 0 60401 36000.00000 0 23967691.259 4625675.513 7434328.220 10 0 60401 36900.00000 0 22870174.283 4471764.261 10395613.510 10 0 60401 37800.00000 0 21413014.121 4418103.120 13155162.520 10 0 60401 38700.00000 0 19634435.396 4510267.284 15659427.595 10 0 60401 39600.00000 0 17582989.812 4785921.267 17859812.243 10 0 60401 40500.00000 0 15315663.851 5273015.684 19713611.213 10 0 60401 41400.00000 0 12895650.217 5988401.424 21184836.524 10 0 60401 42300.00000 0 10389875.403 6936920.222 22244913.831 10 0 60401 43200.00000 0 7866385.701 8111010.636 22873236.041 10 0 60401 44100.00000 0 5391699.705 9490847.025 23057563.800 10 0 60401 45000.00000 0 3028236.642 11045006.837 22794265.211 10 0 60401 45900.00000 0 831926.644 12731639.535 22088390.169 10 0 60401 46800.00000 0 -1149898.481 14500089.580 20953577.562 10 0 60401 47700.00000 0 -2880246.961 16292906.743 19411796.716 10 0 60401 48600.00000 0 -4333769.485 18048160.785 17492927.439 10 0 60401 49500.00000 0 -5497568.718 19701964.450 15234186.075 10 0 60401 50400.00000 0 -6371482.777 21191099.676 12679408.005 10 0 60401 51300.00000 0 -6967831.471 22455637.189 9878199.847 10 0 60401 52200.00000 0 -7310636.719 23441439.504 6884977.379 10 0 60401 53100.00000 0 -7434350.638 24102441.839 3757907.690 10 0 60401 54000.00000 0 -7382145.763 24402614.495 557776.169 10 0 60401 54900.00000 0 -7203840.420 24317523.479 -2653199.289 10 0 60401 55800.00000 0 -6953547.930 23835422.900 -5812583.222 10 0 60401 56700.00000 0 -6687150.063 22957832.509 -8858942.314 10 0 60401 57600.00000 0 -6459702.705 21699575.465 -11733045.449 10 0 60401 58500.00000 0 -6322884.552 20088274.313 -14379019.996 10 0 60401 59400.00000 0 -6322597.693 18163326.064 -16745441.296 10 0 60401 60300.00000 0 -6496822.385 15974399.229 -18786333.829 10 0 60401 61200.00000 0 -6873817.344 13579515.737 -20462064.479 10 0 60401 62100.00000 0 -7470742.112 11042797.972 -21740110.675 10 0 60401 63000.00000 0 -8292760.030 8431974.938 -22595688.855 10 0 60401 63900.00000 0 -9332660.019 5815751.441 -23012231.523 10 0 60401 64800.00000 0 -10571013.427 3261149.560 -22981704.200 10 0 60401 65700.00000 0 -11976859.755 830932.487 -22504756.672 10 0 60401 66600.00000 0 -13508892.856 -1418782.794 -21590706.045 10 0 60401 67500.00000 0 -15117098.288 -3440625.693 -20257352.264 10 0 60401 68400.00000 0 -16744773.657 -5197698.843 -18530629.835 10 0 60401 69300.00000 0 -18330847.644 -6664860.977 -16444102.517 10 0 60401 70200.00000 0 -19812400.986 -7829513.823 -14038310.704 10 0 60401 71100.00000 0 -21127284.054 -8691861.674 -11359983.939 10 0 60401 72000.00000 0 -22216721.487 -9264634.270 -8461133.708 10 0 60401 72900.00000 0 -23027794.794 -9572286.078 -5398043.952 10 0 60401 73800.00000 0 -23515698.766 -9649706.924 -2230178.795 10 0 60401 74700.00000 0 -23645676.924 -9540499.430 980971.263 10 0 60401 75600.00000 0 -23394554.568 -9294896.824 4173082.231 10 0 60401 76500.00000 0 -22751804.878 -8967409.769 7284205.298 10 0 60401 77400.00000 0 -21720102.989 -8614302.163 10253967.714 10 0 60401 78300.00000 0 -20315344.473 -8291002.987 13024742.471 10 0 60401 79200.00000 0 -18566126.999 -8049563.756 15542764.169 10 0 60401 80100.00000 0 -16512716.374 -7936269.196 17759169.501 10 0 60401 81000.00000 0 -14205539.632 -7989502.102 19630942.485 10 0 60401 81900.00000 0 -11703267.368 -8237952.628 21121746.491 10 0 60401 82800.00000 0 -9070564.553 -8699247.723 22202627.327 10 0 60401 83700.00000 0 -6375602.661 -9379058.855 22852574.194 10 0 60401 84600.00000 0 -3687435.663 -10270726.136 23058927.964 10 0 60401 85500.00000 0 -1073348.105 -11355415.460 22817629.034 99